When you browse on this site, cookies collect data to enhance your experience and personalize the content and advertising you see.
Visit our Privacy Policy to learn more. By continuing to use the site, you agree to this use of cookies and data.
  • In Slovakia
  • List of Countries
  • For 7 days
  • Water Temperature
  • Satellite Maps
  • Weather Map
  • Weather Widgets
  • user-avatar
    Login

    Hourly Weather Santa Fe

    Today, 14 December, Friday

    Time Temperature Precipitation Wind Pressure Humidity
    00:00 +28°C° 3.8 mm 3 mps 747 mmHg 81%
    01:00 +27°C° 3.8 mm 3 mps 747 mmHg 86%
    02:00 +26°C° 3.8 mm 3 mps 748 mmHg 92%
    03:00 +26°C° 3.7 mm 3 mps 749 mmHg 93%
    04:00 +26°C° 3.7 mm 2 mps 749 mmHg 94%
    05:00 +25°C° 3.7 mm 1 mps 750 mmHg 95%
    06:00 +26°C° 0.2 mm 2 mps 751 mmHg 94%
    07:00 +26°C° 0.2 mm 3 mps 752 mmHg 92%
    08:00 +27°C° 0.2 mm 3 mps 752 mmHg 90%
    09:00 +27°C° 0 mm 4 mps 753 mmHg 88%
    10:00 +27°C° 0 mm 5 mps 754 mmHg 86%
    11:00 +27°C° 0 mm 6 mps 754 mmHg 84%
    12:00 +27°C° 0.1 mm 6 mps 755 mmHg 80%
    13:00 +28°C° 0.1 mm 5 mps 755 mmHg 76%
    14:00 +28°C° 0.1 mm 5 mps 755 mmHg 71%
    15:00 +29°C° 0.1 mm 5 mps 755 mmHg 69%
    16:00 +29°C° 0.1 mm 5 mps 755 mmHg 67%
    17:00 +30°C° 0.1 mm 5 mps 756 mmHg 64%
    18:00 +29°C° 0 mm 5 mps 756 mmHg 65%
    19:00 +27°C° 0 mm 5 mps 757 mmHg 66%
    20:00 +26°C° 0 mm 4 mps 757 mmHg 67%
    21:00 +25°C° 0 mm 4 mps 758 mmHg 66%
    22:00 +23°C° 0 mm 4 mps 759 mmHg 64%
    23:00 +22°C° 0 mm 4 mps 760 mmHg 62%

    Tomorrow, 15 December, Saturday

    Time Temperature Precipitation Wind Pressure Humidity
    00:00 +21°C° 0 mm 4 mps 760 mmHg 62%
    01:00 +20°C° 0 mm 4 mps 760 mmHg 61%
    02:00 +20°C° 0 mm 3 mps 760 mmHg 61%
    03:00 +19°C° 0 mm 3 mps 760 mmHg 60%
    04:00 +19°C° 0 mm 3 mps 760 mmHg 60%
    05:00 +18°C° 0 mm 3 mps 760 mmHg 60%
    06:00 +20°C° 0 mm 3 mps 761 mmHg 58%
    07:00 +21°C° 0 mm 3 mps 761 mmHg 56%
    08:00 +22°C° 0 mm 3 mps 762 mmHg 53%
    09:00 +25°C° 0 mm 3 mps 762 mmHg 47%
    10:00 +27°C° 0 mm 4 mps 762 mmHg 40%
    11:00 +29°C° 0 mm 4 mps 762 mmHg 34%
    12:00 +30°C° 0 mm 4 mps 761 mmHg 33%
    13:00 +32°C° 0 mm 4 mps 760 mmHg 32%
    14:00 +33°C° 0 mm 3 mps 759 mmHg 31%
    15:00 +31°C° 0 mm 3 mps 759 mmHg 36%
    16:00 +31°C° 0 mm 3 mps 758 mmHg 40%
    17:00 +30°C° 0 mm 3 mps 758 mmHg 44%
    18:00 +28°C° 0 mm 3 mps 758 mmHg 50%
    19:00 +26°C° 0 mm 3 mps 758 mmHg 55%
    20:00 +24°C° 0 mm 3 mps 758 mmHg 61%
    21:00 +22°C° 0.1 mm 3 mps 758 mmHg 63%
    22:00 +22°C° 0.1 mm 3 mps 759 mmHg 66%
    23:00 +21°C° 0.1 mm 3 mps 759 mmHg 69%

    Day after tomorrow, 16 December, Sunday

    Time Temperature Precipitation Wind Pressure Humidity
    00:00 +20°C° 0.1 mm 2 mps 759 mmHg 72%
    01:00 +20°C° 0.1 mm 2 mps 758 mmHg 75%
    02:00 +19°C° 0.1 mm 2 mps 758 mmHg 79%
    03:00 +19°C° 0.6 mm 2 mps 758 mmHg 81%
    04:00 +19°C° 0.6 mm 2 mps 758 mmHg 84%
    05:00 +19°C° 0.6 mm 2 mps 758 mmHg 87%
    06:00 +20°C° 0.7 mm 2 mps 757 mmHg 85%
    07:00 +23°C° 0.7 mm 2 mps 757 mmHg 83%
    08:00 +24°C° 0.7 mm 3 mps 757 mmHg 81%
    09:00 +27°C° 0 mm 3 mps 757 mmHg 75%
    10:00 +29°C° 0 mm 3 mps 757 mmHg 70%
    11:00 +33°C° 0 mm 3 mps 756 mmHg 64%
    12:00 +34°C° 0.4 mm 3 mps 755 mmHg 62%
    13:00 +34°C° 0.4 mm 3 mps 755 mmHg 59%
    14:00 +35°C° 0.4 mm 3 mps 754 mmHg 57%
    15:00 +35°C° 0.8 mm 3 mps 753 mmHg 60%
    16:00 +35°C° 0.8 mm 2 mps 753 mmHg 62%
    17:00 +33°C° 0.8 mm 1 mps 752 mmHg 64%
    18:00 +31°C° 2 mm 2 mps 752 mmHg 72%
    19:00 +29°C° 2 mm 2 mps 753 mmHg 80%
    20:00 +27°C° 2 mm 2 mps 753 mmHg 88%
    21:00 +27°C° 0.1 mm 2 mps 753 mmHg 88%
    22:00 +27°C° 0.1 mm 1 mps 753 mmHg 88%
    23:00 +27°C° 0.1 mm 1 mps 753 mmHg 89%

    17 December, Monday

    Time Temperature Precipitation Wind Pressure Humidity
    00:00 +26°C° 0.3 mm 1 mps 753 mmHg 89%
    01:00 +26°C° 0.3 mm 1 mps 752 mmHg 89%
    02:00 +26°C° 0.3 mm 1 mps 752 mmHg 90%
    03:00 +26°C° 0.3 mm 1 mps 752 mmHg 91%
    04:00 +26°C° 0.3 mm 1 mps 752 mmHg 92%
    05:00 +25°C° 0.3 mm 1 mps 753 mmHg 93%
    06:00 +27°C° 0.2 mm 1 mps 753 mmHg 89%
    07:00 +28°C° 0.2 mm 2 mps 754 mmHg 84%
    08:00 +30°C° 0.2 mm 3 mps 754 mmHg 80%
    09:00 +30°C° 0.9 mm 4 mps 755 mmHg 77%
    10:00 +32°C° 0.9 mm 5 mps 755 mmHg 73%
    11:00 +33°C° 0.9 mm 6 mps 755 mmHg 70%
    12:00 +30°C° 1.1 mm 6 mps 755 mmHg 73%
    13:00 +29°C° 1.1 mm 6 mps 755 mmHg 76%
    14:00 +28°C° 1.1 mm 6 mps 756 mmHg 80%
    15:00 +27°C° 0.1 mm 6 mps 756 mmHg 78%
    16:00 +27°C° 0.1 mm 7 mps 755 mmHg 76%
    17:00 +27°C° 0.1 mm 7 mps 755 mmHg 74%
    18:00 +26°C° 0 mm 7 mps 756 mmHg 73%
    19:00 +24°C° 0 mm 7 mps 757 mmHg 72%
    20:00 +23°C° 0 mm 6 mps 758 mmHg 71%
    21:00 +22°C° 0 mm 6 mps 758 mmHg 72%
    22:00 +21°C° 0 mm 5 mps 759 mmHg 72%
    23:00 +20°C° 0 mm 5 mps 759 mmHg 73%

    18 December, Tuesday

    Time Temperature Precipitation Wind Pressure Humidity
    00:00 +20°C° 0 mm 5 mps 759 mmHg 74%
    01:00 +19°C° 0 mm 5 mps 759 mmHg 75%
    02:00 +17°C° 0 mm 5 mps 759 mmHg 77%
    03:00 +17°C° 0 mm 5 mps 760 mmHg 77%
    04:00 +17°C° 0 mm 5 mps 760 mmHg 78%
    05:00 +17°C° 0 mm 5 mps 760 mmHg 78%
    06:00 +19°C° 0 mm 5 mps 761 mmHg 77%
    07:00 +20°C° 0 mm 5 mps 761 mmHg 76%
    08:00 +21°C° 0 mm 4 mps 762 mmHg 74%
    09:00 +23°C° 0 mm 4 mps 761 mmHg 70%
    10:00 +25°C° 0 mm 4 mps 761 mmHg 66%
    11:00 +27°C° 0 mm 3 mps 761 mmHg 61%
    12:00 +28°C° 0 mm 3 mps 760 mmHg 59%
    13:00 +29°C° 0 mm 3 mps 760 mmHg 57%
    14:00 +29°C° 0 mm 3 mps 759 mmHg 54%
    15:00 +29°C° 0 mm 3 mps 759 mmHg 56%
    16:00 +29°C° 0 mm 3 mps 758 mmHg 58%
    17:00 +29°C° 0 mm 3 mps 758 mmHg 60%
    18:00 +27°C° 0 mm 3 mps 758 mmHg 67%
    19:00 +25°C° 0 mm 3 mps 758 mmHg 74%
    20:00 +24°C° 0 mm 3 mps 758 mmHg 80%
    21:00 +22°C° 0 mm 3 mps 758 mmHg 84%
    22:00 +21°C° 0 mm 2 mps 758 mmHg 87%
    23:00 +21°C° 0 mm 2 mps 758 mmHg 90%

    19 December, Wednesday

    Time Temperature Precipitation Wind Pressure Humidity
    00:00 +20°C° 0 mm 2 mps 758 mmHg 92%
    01:00 +20°C° 0 mm 2 mps 757 mmHg 93%
    02:00 +20°C° 0 mm 2 mps 757 mmHg 95%
    03:00 +20°C° 0 mm 2 mps 757 mmHg 95%
    04:00 +19°C° 0 mm 2 mps 757 mmHg 96%
    05:00 +20°C° 0 mm 1 mps 757 mmHg 96%
    06:00 +21°C° 0 mm 2 mps 757 mmHg 90%
    07:00 +24°C° 0 mm 2 mps 757 mmHg 84%
    08:00 +26°C° 0 mm 2 mps 757 mmHg 77%
    09:00 +27°C° 0 mm 2 mps 756 mmHg 73%
    10:00 +28°C° 0 mm 3 mps 756 mmHg 69%
    11:00 +30°C° 0 mm 3 mps 755 mmHg 64%
    12:00 +30°C° 0 mm 3 mps 755 mmHg 63%
    13:00 +31°C° 0 mm 2 mps 754 mmHg 61%
    14:00 +31°C° 0 mm 2 mps 753 mmHg 59%
    15:00 +31°C° 0 mm 2 mps 753 mmHg 59%
    16:00 +31°C° 0 mm 2 mps 752 mmHg 59%
    17:00 +32°C° 0 mm 2 mps 752 mmHg 59%
    18:00 +30°C° 0 mm 2 mps 752 mmHg 65%
    19:00 +28°C° 0 mm 1 mps 752 mmHg 71%
    20:00 +27°C° 0 mm 1 mps 752 mmHg 77%
    21:00 +26°C° 0 mm 1 mps 753 mmHg 80%
    22:00 +25°C° 0 mm 1 mps 753 mmHg 83%
    23:00 +25°C° 0 mm 1 mps 753 mmHg 87%
    Show more